Flag for Tunisia Weather past 2 weeks in Sfax, Tunisia

Now
81 °F

Scattered clouds.


Feels Like: 85 °F
Forecast: 76 / 89 °F
Wind: 13 mph from Northeast

Location: Sfax El-Maou

Current Time: Aug 21, 2014 at 8:06:47 AM

Latest Report: Aug 21, 2014 at 7:00 AM


Visibility: N/A

Pressure: 29.92 "Hg

Humidity: 79%

Dew point: 73 °F

Location of SfaxLocation

Historic Weather in Sfax — Graph

°F

Sfax temperature yesterday

Maximum temperature yesterday: 93 °F (at 12:00 PM)
Minimum temperature yesterday: 79 °F (at 4:00 AM)
Average temperature yesterday: 85 °F

Past Weeks' High & Low Weather Summary

 TemperatureHumidityPressure
High97 °F (Aug 13, 12:00 PM)94% (Aug 11, 6:00 AM)30.09 "Hg (Aug 11, 6:00 AM)
Low68 °F (Aug 8, 6:00 AM)26% (Aug 6, 11:00 AM)29.74 "Hg (Aug 13, 6:00 PM)
Average82 °F63%29.95 "Hg
* Reported Aug 6 6:00 AM — Aug 21 6:00 AM, Sfax, Weather by CustomWeather, © 2014

Note: Actual official high and low records may vary slightly from our data, if they occured in-between our weather recording intervals... More about our weather records

Advertising

Sfax weather history for previous 24 hours

 ConditionsComfort  
Time TempWeatherWind HumidityBarometerVisibility
6:00 AM
Aug 21
79 °FScattered clouds.16 mph84%29.92 "HgN/A
5:00 AM79 °FPassing clouds.14 mph84%29.89 "HgN/A
4:00 AM81 °FClear.15 mph84%29.89 "Hg10 mi
3:00 AM81 °FClear.13 mph84%29.89 "Hg10 mi
2:00 AM81 °FPassing clouds.12 mph84%29.89 "HgN/A
1:00 AM82 °FPassing clouds.8 mph74%29.89 "HgN/A
12:00 AM84 °FPassing clouds.6 mph70%29.92 "HgN/A
11:00 PM
Aug 20
84 °FPassing clouds.3 mph66%29.92 "HgN/A
10:00 PM84 °FPassing clouds.8 mph70%29.89 "HgN/A
9:00 PM84 °FPassing clouds.13 mph74%29.89 "HgN/A
8:00 PM86 °FPassing clouds.16 mph75%29.86 "HgN/A
7:00 PM86 °FPassing clouds.9 mph70%29.92 "HgN/A
6:00 PM86 °FScattered clouds.16 mph70%29.86 "HgN/A
5:00 PM88 °FScattered clouds.9 mph66%29.86 "HgN/A
4:00 PM88 °FPassing clouds.12 mph75%29.86 "HgN/A
3:00 PM91 °FPassing clouds.12 mph56%29.86 "HgN/A
2:00 PM91 °FSunny.12 mph59%29.89 "Hg10 mi
1:00 PM91 °FPassing clouds.12 mph59%29.92 "HgN/A
12:00 PM93 °FClear.10 mph56%29.92 "Hg1 mi
10:00 AM91 °FClear.2 mph59%29.95 "Hg5 mi
9:00 AM86 °FClear.5 mph70%29.92 "Hg5 mi
8:00 AM86 °FClear.5 mph70%29.92 "Hg4 mi
Weather by CustomWeather, © 2014

See weather overviewHow to use our weather pages